Retour au catalogue

GLOBALSTAR M065

ActifCommunicationsLEO
NORAD 31571·PAYLOAD·🇺🇸 United States

Lancé May 29, 2007 depuis Baikonur Cosmodrome

Loading…

Prochains Passages (prochaines 24 heures)

TLE

FraisSource: Space-Track

Époque: Sep 14, 2026, 02:41 UTC

1 31571U 07020A   26257.11183184 -.00000024  00000-0  44498-3 0  9994
2 31571  51.9884 284.6292 0009463 233.3059 160.0038 12.62035360890726

Suivez GLOBALSTAR M065 en temps réel avec AllMySat

Download on the App Store